Wind_Speed
73 71 70 69 69 70 71 72 74 76 75 67 59 51 44 39 34 29 21 10 1 8 16 22 26 28 30 33 36 41 48 58 65 72 75 76 80 89 99 102 100 97 96
71 69 68 67 68 69 70 71 73 75 75 67 57 49 41 35 31 26 20 13 4 3 10 16 20 23 25 28 32 37 44 53 61 67 72 73 75 82 92 100 101 97 95
69 68 66 66 66 68 70 71 72 73 74 68 57 48 40 34 29 24 19 12 6 2 7 12 16 19 21 24 28 33 40 49 57 63 68 70 71 76 86 96 101 98 95
67 66 65 64 65 67 69 70 71 72 73 70 60 49 40 34 29 24 19 12 6 3 6 10 14 16 18 21 24 30 37 45 53 60 65 67 68 70 79 90 99 101 96
66 65 64 63 64 65 67 69 70 71 72 71 65 54 43 35 30 24 19 13 7 5 7 9 12 14 16 18 22 27 34 41 49 57 62 64 64 66 72 84 94 99 97
65 64 63 62 62 63 65 67 68 69 70 71 68 60 49 38 31 26 20 15 9 6 7 9 11 12 14 17 20 25 32 39 46 54 59 61 61 62 65 74 87 96 95
64 63 62 61 61 62 63 65 66 66 68 69 69 65 56 45 35 28 21 16 11 6 5 7 10 12 15 17 21 25 30 36 43 50 56 58 57 57 59 66 77 89 94
63 62 60 60 60 61 62 63 64 65 66 67 68 67 62 53 41 31 25 19 13 7 3 5 9 12 15 18 21 25 29 34 40 46 52 54 54 53 55 60 69 79 88
62 60 59 59 59 60 60 61 62 63 64 65 66 66 64 59 49 37 29 23 16 9 4 3 8 12 16 19 22 25 28 32 38 44 48 51 51 50 51 55 62 71 79
61 59 58 58 59 59 59 60 61 62 62 63 64 65 65 63 56 45 34 27 20 13 6 1 7 12 16 20 22 25 28 32 36 41 46 49 49 48 48 50 57 64 70
61 58 57 57 57 58 59 59 59 60 61 62 62 63 64 62 60 52 40 31 23 16 8 2 7 13 17 20 23 24 27 30 34 38 42 45 47 46 46 47 53 59 65
60 58 57 56 56 56 57 58 58 58 59 59 59 60 61 61 60 58 48 37 28 20 11 4 7 13 17 20 22 24 26 28 31 34 37 41 43 44 45 47 51 57 61
59 57 56 55 55 55 55 56 56 56 56 57 57 58 59 59 59 58 54 44 33 24 15 7 6 12 16 19 21 23 25 27 29 31 33 35 38 41 44 47 51 57 62
58 57 55 54 54 54 54 55 55 55 55 55 56 56 56 57 57 57 56 50 39 30 20 10 6 10 14 17 20 21 23 24 26 27 29 31 34 37 41 46 51 58 64
57 56 54 53 53 53 53 54 54 55 56 55 55 55 54 54 55 56 55 53 46 36 26 15 6 7 12 15 18 20 21 22 23 24 25 27 29 33 38 44 50 58 66
56 54 53 52 52 51 51 52 54 54 54 54 54 54 54 53 53 52 52 51 49 42 32 21 10 4 9 13 17 18 20 21 22 21 22 23 25 28 32 39 47 55 64
55 53 52 51 51 50 50 49 50 51 53 53 52 52 51 51 50 49 49 48 47 45 38 27 16 6 5 11 15 18 19 20 21 21 20 21 22 24 27 32 41 51 61
55 53 51 50 50 50 50 49 48 48 49 50 50 50 49 48 47 46 46 45 45 44 41 35 24 13 3 8 14 18 20 21 21 21 20 20 20 21 24 27 34 45 56
54 53 51 49 49 49 49 49 48 48 47 47 47 47 47 47 46 45 43 42 41 41 41 38 32 22 10 2 10 16 20 22 23 22 21 20 20 20 22 25 30 38 49
52 52 50 49 48 48 49 48 47 46 46 46 46 45 44 44 44 43 42 40 39 39 39 38 36 30 20 8 4 13 19 23 24 24 23 22 21 21 22 23 27 34 42
51 51 50 48 47 47 48 48 47 46 45 45 45 44 43 43 42 42 41 39 38 36 36 36 36 33 27 19 7 6 15 21 25 27 26 25 23 22 22 23 26 32 38
50 50 49 48 47 46 47 47 47 46 44 43 43 43 42 41 41 40 40 39 37 35 34 34 34 33 30 25 17 6 8 17 24 28 29 28 27 25 24 24 27 31 37
49 49 49 47 46 45 46 46 46 45 44 43 41 41 41 40 39 39 38 38 37 35 33 33 33 32 30 28 23 15 5 10 19 26 30 31 30 28 27 26 28 31 35
47 48 48 47 46 45 45 45 45 44 43 42 40 40 39 39 38 38 37 37 36 35 33 32 32 31 31 29 26 21 13 5 12 22 29 33 34 33 31 30 30 32 35
46 46 47 46 45 44 44 43 43 43 42 41 39 38 38 37 37 36 36 36 35 34 33 33 32 32 32 31 29 24 18 10 5 15 24 32 36 37 36 34 33 34 35
44 45 46 46 45 44 43 42 42 42 41 40 38 37 37 36 36 35 35 35 34 33 32 32 33 33 33 33 32 27 21 14 8 8 18 28 35 39 40 40 38 37 37
Wind_Direction
344 345 347 348 350 352 353 353 354 355 356 354 354 356 1 8 15 20 25 34 103 211 219 224 227 229 230 228 224 218 212 210 210 212 211 212 210 208 206 204 205 207 210
346 347 349 350 352 354 355 356 358 358 359 358 356 358 2 7 14 18 24 30 32 222 222 224 226 227 228 226 222 216 210 207 207 209 210 210 209 208 206 204 203 204 208
348 349 350 352 354 356 357 359 360 1 2 1 359 358 359 2 8 12 14 17 12 284 230 224 224 224 224 222 219 213 208 205 205 207 209 208 208 208 206 204 202 203 205
350 351 352 353 355 357 359 1 2 3 4 5 3 1 357 357 360 3 4 1 350 290 233 224 221 221 220 219 214 209 205 203 202 204 207 207 207 207 206 205 203 203 204
351 353 354 355 356 358 1 2 3 5 6 8 7 5 0 355 354 355 355 351 333 284 242 226 220 217 215 212 208 204 202 200 199 201 204 206 206 206 207 206 205 205 205
353 354 356 356 357 359 1 4 5 6 7 9 10 9 7 1 355 354 352 350 335 292 246 227 220 215 208 203 199 197 197 196 196 198 202 204 205 205 206 207 207 206 205
354 356 357 358 359 0 3 5 6 8 9 10 12 13 12 9 3 359 356 353 346 320 258 227 217 207 200 194 190 190 191 192 194 196 200 203 204 205 206 207 208 208 206
356 357 358 359 -0 2 4 6 7 9 10 11 13 14 15 14 10 5 1 360 357 347 294 225 208 199 191 184 183 183 185 188 190 193 198 201 203 204 206 207 208 209 209
357 358 359 -0 2 3 5 6 8 10 11 12 13 15 16 16 15 12 7 5 3 359 343 213 193 187 182 177 176 177 181 184 186 190 195 199 202 204 205 206 207 208 210
358 359 359 1 3 5 6 7 9 10 12 13 14 15 16 17 18 16 13 11 9 6 5 158 175 175 173 172 172 173 177 180 183 187 193 198 201 204 205 206 206 207 209
359 360 0 2 4 6 7 8 9 10 12 13 14 15 17 18 19 19 19 17 15 14 17 89 161 167 168 168 169 170 173 176 180 185 190 196 200 203 204 205 204 204 205
359 -0 1 2 4 7 8 9 10 11 12 13 14 16 17 19 19 21 21 21 20 20 26 68 148 163 165 167 167 168 170 173 178 183 189 196 201 204 205 205 204 203 201
359 0 1 2 4 7 9 10 11 12 12 13 15 16 18 19 20 22 23 23 23 25 30 57 131 158 164 166 168 168 169 172 176 182 189 195 201 206 207 206 204 202 199
359 0 1 2 4 6 8 10 11 12 12 13 15 16 17 18 20 22 24 25 25 26 31 47 108 156 166 169 170 170 171 173 177 182 189 195 201 206 208 208 205 201 198
359 0 1 1 2 4 5 8 10 11 12 13 14 16 17 18 20 22 23 24 26 27 29 37 73 149 170 175 175 175 175 176 179 185 191 197 202 207 209 209 206 202 198
359 360 1 1 2 3 4 5 7 10 11 12 13 14 16 17 19 20 22 24 26 27 28 31 45 122 172 181 182 182 181 181 182 185 191 197 202 207 209 209 207 204 200
359 359 0 1 2 3 3 4 6 7 9 10 12 13 15 16 17 19 21 23 25 26 27 29 34 54 168 187 190 190 189 188 187 188 192 196 200 204 207 207 206 204 201
358 358 359 0 1 2 2 3 4 6 8 8 10 11 13 15 16 18 19 21 23 25 26 28 30 34 75 190 196 197 197 195 194 193 195 197 199 201 202 203 203 202 200
357 357 358 359 0 1 1 2 3 4 6 7 8 9 11 12 15 16 18 19 21 23 25 26 28 30 33 174 201 202 202 201 200 199 199 198 199 199 199 199 199 198 198
356 357 357 358 359 360 0 1 2 2 4 5 7 8 9 11 13 15 16 18 19 21 23 24 26 27 27 26 210 207 206 205 205 204 202 200 199 199 199 198 196 195 195
356 356 356 356 357 358 359 360 1 2 3 4 5 7 8 9 11 13 15 16 18 19 21 22 23 24 24 23 16 219 211 209 208 207 205 203 201 200 198 197 195 194 193
355 356 356 356 356 356 358 359 360 1 2 3 4 5 6 7 9 11 13 15 16 17 18 19 20 21 21 20 16 359 225 213 210 208 207 205 203 201 198 195 193 193 192
355 355 355 355 354 355 356 357 359 0 1 2 3 4 5 6 7 9 11 13 14 15 16 17 17 17 18 17 15 9 336 227 213 210 208 206 205 203 200 196 193 192 192
354 354 355 354 354 354 355 356 357 359 360 0 1 2 3 5 6 8 9 11 12 14 15 15 15 15 14 13 11 8 0 308 225 213 209 207 205 204 201 197 194 192 191
352 353 354 354 353 353 353 354 356 357 358 359 0 1 2 4 5 6 8 9 11 12 13 14 14 13 12 11 9 6 1 348 273 221 212 208 206 204 202 199 196 194 193
351 352 353 353 352 352 352 353 354 356 357 358 359 360 1 3 4 5 7 8 10 11 12 12 12 12 12 10 9 6 1 352 323 246 219 211 207 205 204 201 199 197 195
Height
5547 5530 5513 5496 5478 5461 5442 5423 5403 5383 5361 5340 5323 5308 5296 5285 5276 5269 5264 5263 5265 5268 5272 5278 5284 5290 5296 5302 5309 5317 5327 5340 5354 5369 5386 5403 5422 5441 5464 5487 5509 5529 5548
5542 5526 5509 5492 5476 5458 5440 5421 5402 5381 5361 5341 5324 5310 5300 5291 5283 5277 5273 5271 5270 5271 5273 5277 5282 5287 5291 5296 5303 5310 5321 5332 5347 5361 5377 5395 5413 5431 5452 5474 5496 5516 5535
5539 5522 5506 5490 5474 5457 5439 5421 5402 5382 5363 5343 5326 5313 5303 5295 5289 5283 5279 5276 5274 5274 5275 5277 5280 5284 5288 5293 5299 5306 5316 5327 5340 5354 5369 5386 5404 5421 5441 5461 5482 5502 5522
5536 5520 5504 5488 5473 5456 5438 5421 5403 5385 5366 5347 5329 5315 5305 5297 5292 5287 5282 5279 5276 5275 5275 5277 5279 5282 5286 5291 5297 5303 5312 5323 5335 5348 5363 5380 5397 5414 5431 5450 5470 5489 5508
5534 5518 5502 5487 5471 5455 5439 5422 5405 5387 5369 5351 5333 5319 5308 5299 5293 5288 5284 5280 5277 5276 5276 5277 5279 5281 5285 5289 5295 5301 5309 5319 5331 5343 5357 5374 5390 5407 5423 5440 5459 5477 5496
5532 5517 5501 5486 5471 5456 5440 5424 5408 5391 5374 5356 5339 5324 5311 5301 5294 5288 5283 5280 5277 5275 5275 5276 5278 5281 5284 5288 5293 5300 5308 5317 5328 5340 5354 5369 5385 5401 5416 5432 5449 5467 5486
5531 5515 5501 5486 5472 5457 5442 5426 5411 5395 5379 5362 5346 5330 5316 5304 5295 5289 5284 5280 5277 5275 5275 5276 5278 5280 5283 5288 5293 5299 5307 5316 5326 5338 5351 5366 5382 5397 5411 5426 5441 5457 5475
5529 5515 5501 5487 5473 5458 5443 5429 5415 5400 5384 5369 5353 5337 5322 5310 5299 5291 5285 5281 5278 5276 5275 5276 5278 5280 5284 5288 5294 5300 5307 5316 5325 5337 5350 5365 5379 5393 5406 5419 5433 5449 5466
5529 5515 5502 5489 5475 5460 5446 5432 5418 5404 5390 5375 5360 5345 5330 5317 5305 5295 5288 5283 5280 5277 5276 5277 5278 5281 5285 5289 5295 5301 5308 5316 5326 5337 5349 5363 5376 5389 5401 5414 5427 5442 5457
5530 5516 5503 5490 5476 5462 5448 5435 5421 5408 5394 5380 5366 5352 5337 5324 5311 5301 5292 5287 5282 5280 5278 5278 5280 5283 5287 5291 5297 5303 5310 5318 5326 5337 5349 5361 5374 5386 5397 5409 5422 5435 5450
5530 5517 5505 5491 5478 5464 5451 5438 5424 5411 5398 5385 5372 5359 5345 5332 5320 5308 5298 5291 5287 5283 5282 5282 5283 5286 5290 5295 5300 5306 5312 5320 5328 5338 5348 5360 5371 5382 5393 5404 5416 5429 5443
5531 5518 5506 5493 5481 5467 5454 5441 5429 5417 5405 5393 5381 5368 5355 5342 5329 5316 5305 5297 5291 5288 5286 5286 5287 5290 5294 5298 5303 5309 5315 5322 5330 5339 5348 5358 5368 5378 5389 5399 5410 5423 5436
5530 5518 5506 5494 5483 5471 5459 5447 5435 5423 5411 5400 5387 5375 5362 5351 5339 5326 5315 5305 5298 5293 5291 5290 5292 5295 5298 5302 5307 5312 5318 5324 5331 5339 5347 5356 5365 5374 5383 5394 5404 5416 5429
5530 5518 5507 5495 5484 5473 5462 5451 5439 5428 5417 5405 5393 5382 5370 5359 5348 5336 5324 5315 5306 5301 5297 5296 5297 5299 5303 5306 5311 5315 5321 5326 5333 5340 5347 5354 5362 5370 5378 5387 5398 5409 5422
5531 5519 5508 5496 5485 5474 5464 5454 5443 5431 5420 5409 5398 5388 5377 5366 5354 5343 5333 5324 5315 5308 5304 5302 5302 5304 5307 5310 5314 5318 5323 5328 5334 5340 5346 5352 5359 5366 5373 5381 5390 5401 5413
5532 5520 5509 5499 5488 5477 5466 5454 5444 5434 5424 5413 5403 5392 5382 5372 5362 5353 5343 5334 5325 5317 5311 5308 5307 5307 5310 5313 5316 5320 5325 5329 5334 5340 5345 5350 5356 5362 5368 5375 5383 5393 5405
5532 5521 5511 5501 5491 5480 5470 5460 5449 5438 5427 5418 5408 5398 5389 5379 5370 5361 5352 5343 5335 5327 5320 5314 5311 5311 5312 5314 5318 5322 5326 5330 5335 5339 5344 5349 5354 5358 5363 5369 5376 5385 5396
5533 5522 5512 5502 5492 5482 5472 5462 5452 5443 5434 5423 5413 5404 5395 5386 5377 5368 5359 5351 5343 5336 5328 5321 5317 5314 5314 5316 5318 5322 5326 5330 5335 5339 5343 5347 5351 5356 5360 5365 5371 5379 5389
5533 5522 5511 5502 5492 5483 5473 5463 5454 5445 5436 5427 5418 5409 5400 5391 5382 5373 5365 5358 5350 5343 5336 5329 5323 5319 5316 5317 5318 5321 5325 5329 5333 5338 5342 5346 5350 5354 5358 5363 5368 5374 5383
5532 5522 5512 5502 5493 5484 5474 5465 5456 5447 5438 5429 5421 5413 5404 5396 5387 5379 5371 5364 5356 5349 5342 5335 5329 5324 5320 5318 5318 5320 5323 5327 5331 5336 5340 5344 5348 5352 5356 5360 5366 5372 5379
5532 5522 5512 5502 5494 5485 5476 5466 5457 5448 5439 5431 5422 5414 5406 5398 5391 5383 5375 5368 5361 5354 5347 5341 5335 5329 5324 5321 5319 5319 5320 5324 5328 5332 5337 5342 5346 5350 5354 5358 5363 5370 5377
5532 5521 5512 5502 5493 5485 5476 5467 5458 5449 5440 5432 5424 5416 5409 5401 5393 5386 5379 5371 5364 5358 5351 5345 5339 5334 5329 5324 5321 5319 5318 5320 5323 5328 5333 5338 5343 5348 5352 5357 5361 5367 5374
5531 5521 5511 5502 5493 5485 5476 5467 5459 5450 5442 5434 5426 5418 5411 5403 5396 5389 5382 5375 5368 5361 5355 5349 5343 5337 5332 5327 5322 5319 5317 5317 5319 5323 5328 5333 5339 5344 5349 5354 5359 5365 5372
5530 5520 5510 5501 5492 5484 5476 5467 5459 5451 5442 5435 5427 5420 5412 5405 5398 5391 5384 5377 5370 5364 5358 5352 5346 5340 5334 5329 5324 5319 5316 5315 5315 5317 5322 5327 5333 5340 5346 5351 5357 5363 5369
5528 5519 5509 5500 5491 5483 5475 5467 5459 5451 5443 5435 5428 5421 5414 5407 5400 5393 5386 5379 5373 5366 5360 5354 5348 5342 5336 5330 5324 5319 5315 5313 5312 5313 5316 5321 5327 5334 5341 5347 5354 5360 5366
5526 5517 5508 5499 5490 5482 5474 5466 5459 5451 5443 5436 5428 5421 5414 5408 5401 5394 5388 5381 5375 5368 5362 5356 5350 5344 5337 5331 5325 5319 5314 5310 5308 5308 5310 5314 5319 5326 5334 5342 5349 5356 5363